INTELSAT 33E DEB

Satellite information

Favourite Embed

Satellite Type and Status

DEBRISIN ORBIT

Key statistics

Satellite INTELSAT 33E DEB at a glance.

Uptime

3399

Days in orbit

Revolutions

≈ 1.0

Per day

Orbit

GEO

Geostationary Orbit

Inclination

1.0

Latest

Satellite identification and parameters

Extended collection of information and parameters for INTELSAT 33E DEB.

Object identification

Identified? True

Debris? True

Object name: INTELSAT 33E DEB

International designator: 2016-053AQ

Object number (NORAD): 64410

Object ID (CCSDS): 64410

Country: INTERNATIONAL TELECOMMUNICATIONS SATELLITE ORGANIZATION (INTELSAT) (ITSO)

Current information (Y/N): Y

Orbital parameters

Period: 1439.88 minutes

Inclination: 0.9933 deg

SMA: 42238.748 km

Apoapsis: 36090.787 km

Periapsis: 35630.44 km

RAAN: 67.1488 deg

Eccentricy: 0.00544934

Argument of periapsis: 2.5808 deg

Mean anomaly: 290.8633 deg

Mean motion: 1.00008337 rev/day

Mean motion (dot): 0.00000001 rev/day2

B* drag term: 0.0 1/REarth

Two-line elements (TLE)

Creation date: Dec. 13, 2025, 5:47 p.m.

Reference frame: TEME

Reference center: EARTH

Epoch: Dec. 12, 2025, 6:13 p.m. UTC

TLE line 0: 0 INTELSAT 33E DEB

TLE line 1: 1 64410U 16053AQ 25346.75957622 .00000001 00000-0 00000-0 0 9994

TLE line 2: 2 64410 0.9933 67.1488 0054493 2.5808 290.8633 1.00008337 4022

Live tracking on map

Real-time ground track for satellite INTELSAT 33E DEB.

In-orbit conjunctions

A list of the most updated potential collisions computed for object INTELSAT 33E DEB.

Target Orbit TCA Probability of collision Miss distance Type
HIMAWARI 1 (GMS 1) OTHER 2025-08-27 13:25:20 TBA 3958.0 (m) PAYLOAD

Associated space launch

Intelsat 33e and Intelsat 36 are communication satellites. Intelsat 33e will cover Europe, Africa, Asia and the Middle East. Intelsat 36 will cover Africa and South Asia. Both contain C-band transponders, Ku-band transponders and have an expected life span or about 15 years.

INTELSAT 33E DEB was lifted into orbit during the mission ‘Ariane 5 ECA | Intelsat 33e & Intelsat 36’, on board a Ariane 5 ECA space rocket.

The launch took place on Aug. 24, 2016, 10:16 p.m. from Ariane Launch Area 3.

For more information about the launch, click the button.

Launch to space Ariane 5 ECA | Intelsat 33e & Intelsat 36
Ariane 5 ECA | Intelsat 33e & Intelsat 36

Agency: N/A

Status: Launch Successful

Launch date: Aug. 24, 2016, 10:16 p.m. UTC

Rocket: Ariane 5 ECA

Launch pad: Ariane Launch Area 3

Location: Guiana Space Centre, French Guiana

...

Latest news about this satellite

News about space launch
Intelsat 33e demise exposes vulnerabilities in the space domain

Intelsat 33e’s break-up in geostationary orbit highlights an emerging threat for the contested space domain, an executive at U.S.-based space-tracking company ExoAnalytic Solutions said Dec. 10 during the Spacepower Conference here. The post Intelsat 33e...

News about space launch
Intelsat 33e Breakup Sends Shockwaves

Space-tracking company ExoAnalytic Solutions has identified about 500 pieces of debris from Intelsat 33e’s recent breakup in geostationary orbit (GEO).

News about space launch
ExoAnalytic observes 500 pieces of debris from Intelsat 33e breakup

U.S.-based space-tracking company ExoAnalytic Solutions has identified about 500 pieces of debris from Intelsat 33e’s recent breakup in geostationary orbit.


Newsletter sign-up

Weekly statistics, charts and insights to help you stay on top of the space industry.